Weather in Beaulieu-sur-Mer

France     43°42′29″N   7°18′54″E
temp.,
°C
wind,
m/s
gust,
m/s
humid.,
%
clouds,
%
prec.,
mm/h
press.,
hPa
HPBL,
m
2 december, thu
thu201:00+8nnw237488 0.0 100271
04:00+7n227398 0.0 100097
07:00+7nnw2371100 0.0 99992
10:00+9nw2356100 0.0 999156
13:00+11ssw22523 0.0 998914
16:00+9sse22758 0.1 997310
19:00+7nnw23835 1.6 99769
22:00+6nnw4573100 2.2 997109
3 december, fri
fri301:00+5nnw45679 2.9 998118
04:00+4nnw45620 0.0 1001109
07:00+3nnw45550 0.0 100588
10:00+7nnw34410 0.0 1008151
13:00+10s21290 0.0 1009520
16:00+9ssw123791 0.0 101188
19:00+6nnw33485 0.0 101496
22:00+5nnw334593 0.0 101571
4 december, sat
sat401:00+5nnw234750 0.0 101468
04:00+5nnw3349100 0.0 101385
07:00+5n2246100 0.0 101156
10:00+8e114310 0.0 1009215
13:00+10se225324 0.0 1007468
16:00+11w2367100 0.0 1004175
19:00+9wnw35640 0.0 1003174
22:00+7nnw34630 0.0 1003118
5 december, sun
sun501:00+6nnw34620 0.0 1003108
04:00+4nnw455612 0.0 1003123
07:00+3nnw46530 0.0 1004137
10:00+6nnw34390 0.0 1004257
13:00+10se11320 0.0 1002943
16:00+9sse22470 0.0 1002247
19:00+5nnw344894 0.1 1004116
22:00+4nnw454223 0.0 1005114
6 december, mon
mon601:00+4nnw45395 0.0 1005107
04:00+4nnw453788 0.1 1007103
07:00+3nnw563890 0.1 1009114
10:00+6nnw46303 0.0 1011192
13:00+11wnw02160 0.0 1012866
16:00+10wsw11220 0.0 101459
19:00+5nnw45303 0.0 101793
22:00+5nnw453012 0.0 101984